Starlink 35727

operational
NORAD ID: 66282 Int'l Des: 2025-247 Owner: SPXS Country: US Constellation: starlink
NOTLE

关于 Starlink 35727

正在加载描述...

实时位置

正在加载3D地球...

即将过境

高度历史

Altitude vs Time

uPlot chart will show altitude changes over time

两行轨道根数

1 66282C 25247S 25305.06923611 .00477280 00000+0 71553-3 0 3059
2 66282 53.1564 79.7457 0008844 259.3112 335.8862 16.03430792 17
Epoch: Nov 1, 2025 • Age: 46 hours

当前状态

高度 262.7 km
速度 7.75 km/s
星下点 17.26°N, 76.81°E
发射日期 Oct 31, 2025
运行时间 2 days
类型 internet

技术详情

分类 Payload
质量 575.00 kg
干质量 530.00 kg
总质量 575.00 kg
长度 0.30 m
直径 4.10 m
跨度 29.00 m
形状 Box + pan
制造商 SPXS
平台类型 Starlink V2MO
阶段状态 In Orbit
所有者/国家 SPXS/US

大型星座

Loading constellations...